Location: Overspoor
(51.4747°N, 5.6641°E)
Time: 09:56:02
(UTC+02:00)

YUBILEINY - Pass Details

Date: 30 June 2022
Orbit: 1478 x 1509 km, 82.5° (Epoch: 07 August)

Event Time Altitude Azimuth Distance (km) Brightness Sun altitude
Rises 02:47:49 0° 344° (NNW) 4,660 ? -13.9°
Reaches altitude 10° 02:53:14 10° 11° (NNE) 3,671 ? -13.7°
Maximum altitude 02:56:56 13° 37° (NE) 3,430 ? -13.5°
Drops below altitude 10° 03:00:38 10° 62° (ENE) 3,657 ? -13.3°
Sets 03:05:57 0° 89° (E) 4,626 ? -13.0°
